Weather History for Adrar, Algeria

Change the Weather History Date:

Monday, February 18, 2013

  Actual Average Record
Temperature  
Mean Temperature 62 °F -  
Max Temperature 81 °F 80 °F - ()
Min Temperature 42 °F 49 °F - ()
Degree Days  
Heating Degree Days 4    
Growing Degree Days 12 (Base 50)    
Moisture  
Dew Point 20 °F    
Average Humidity 19    
Maximum Humidity 39    
Minimum Humidity 4    
Precipitation  
Precipitation 0.00 in 0.00 in - ()
Sea Level Pressure  
Sea Level Pressure 29.99 in    
Wind  
Wind Speed 7 mph ()    
Max Wind Speed 12 mph    
Max Gust Speed -    
Visibility 6.0 miles    
Events      
T = Trace of Precipitation, MM = Missing Value Source: Averaged Metar Reports

Daily Weather History Graph

Daily Weather History Graph

Search for Another Location

Airport:

Trip Planner

Search our weather history database for the weather conditions in past years. The results will help you decide how hot, cold, wet, or windy it might be!

Date:

Astronomy

Feb. 18, 2013 Rise Set
Actual Time 7:35 AM CET 6:54 PM CET
Civil Twilight 7:11 AM CET 7:17 PM CET
Nautical Twilight 6:44 AM CET 7:45 PM CET
Astronomical Twilight 6:17 AM CET 8:12 PM CET
Moon 12:43 PM CET (2/18) 1:48 AM CET (2/18)
Length of Visible Light 12h 06m
Length of Day
11h 18m
First Quarter, 56% of the Moon is Illuminated
Feb 18
First Quarter
Feb 25
Full
Mar 4
Last Quarter
Mar 11
New
Mar 19
First Quarter

Hourly Weather History & Observations

Time (CET) Temp. Windchill Dew Point Humidity Pressure Visibility Wind Dir Wind Speed Gust Speed Precip Events Conditions
12:00 AM 55.4 °F - 21.2 °F 26% 30.04 in - NE 8.1 mph - N/A   Clear
1:00 AM 53 °F - 19 °F 15% 30.02 in 6 mi NE 9.2 mph - -   Scattered Clouds
2:00 AM 51.8 °F - 19.4 °F 28% 30.04 in - NNE 8.1 mph - N/A   Clear
3:00 AM 51.8 °F - 19.4 °F 28% 30.04 in - NE 8.1 mph - N/A   Clear
4:00 AM 50 °F - 19 °F 17% 30.01 in 6 mi NNE 11.5 mph - -   Scattered Clouds
4:00 AM 50.0 °F - 19.4 °F 30% 30.01 in - NNE 11.5 mph - N/A   Clear
5:00 AM 48.2 °F - 19.4 °F 32% 30.01 in - East 8.1 mph - N/A   Clear
6:00 AM 46.4 °F 42.4 °F 21.2 °F 37% 30.01 in - East 8.1 mph - N/A   Clear
7:00 AM 44 °F - 20 °F 24% 30.03 in 6 mi East 8.1 mph - -   Scattered Clouds
7:00 AM 42.8 °F 38.0 °F 19.4 °F 39% 30.04 in - East 8.1 mph - N/A   Clear
8:00 AM 44.6 °F 40.2 °F 21.2 °F 39% 30.04 in - East 8.1 mph - N/A   Clear
9:00 AM 48.2 °F - 23.0 °F 37% 30.01 in - East 5.8 mph - N/A   Clear
10:00 AM 60 °F - 26 °F 16% 30.04 in 6 mi East 6.9 mph - -   Clear
10:00 AM 60.8 °F - 26.6 °F 27% 30.04 in - East 6.9 mph - N/A   Clear
11:00 AM 68.0 °F - 24.8 °F 20% 30.04 in - East 9.2 mph - N/A   Clear
12:00 PM 73.4 °F - 26.6 °F 18% 30.04 in - East 10.4 mph - N/A   Clear
1:00 PM 76 °F - 24 °F 7% 30.01 in 6 mi ENE 11.5 mph - -   Clear
1:00 PM 77.0 °F - 24.8 °F 14% 30.01 in - ENE 11.5 mph - N/A   Clear
2:00 PM 78.8 °F - 26.6 °F 15% 29.98 in - ENE 6.9 mph - N/A   Clear
3:00 PM 80.6 °F - 23.0 °F 12% 29.98 in - NE 9.2 mph - N/A   Clear
4:00 PM 80 °F - 20 °F 5% 29.93 in 6 mi ENE 11.5 mph - -  
4:00 PM 80.6 °F - 21.2 °F 11% 29.95 in - ENE 11.5 mph - N/A   Clear
5:00 PM 80.6 °F - 17.6 °F 10% 29.92 in - ENE 6.9 mph - N/A   Clear
6:00 PM 78.8 °F - 17.6 °F 10% 29.92 in - NE 6.9 mph - N/A   Clear
7:00 PM 76 °F - 16 °F 4% 29.93 in 6 mi Calm Calm - -  
7:00 PM 75.2 °F - 15.8 °F 11% 29.92 in - Calm Calm - N/A   Clear
8:00 PM 69.8 °F - 12.2 °F 11% 29.92 in - Calm Calm - N/A   Clear
9:00 PM 68.0 °F - 14.0 °F 12% 29.92 in - Calm Calm - N/A   Clear
10:00 PM 64 °F - 12 °F 6% 29.95 in 6 mi Calm Calm - -  
10:00 PM 64.4 °F - 12.2 °F 13% 29.95 in - Calm Calm - N/A   Clear
11:00 PM 60.8 °F - 10.4 °F 14% 29.95 in - Calm Calm - N/A   Clear